User: anonymous   Login
Location: Cherry Road
(34.5193°N, 112.0852°W)
Time: 13:35:49
(UTC-07:00)
Language:

Hubble Space Telescope - Orbit

View from above orbital plane
View from above orbital plane
View from above satellite
View from above satellite

Ground track
Ground track

The orbit data is extracted from the following two-line orbital elements,

1 20580U 90037B   17119.95172454 +.00000697 +00000-0 +32107-4 0  9999
2 20580 028.4703 326.2463 0002773 017.9230 200.7908 15.08750735282906
Epoch (UTC): 29 April 2017 22:50:29
Eccentricity: 0.0002773
inclination: 28.4703°
perigee height: 538 km
apogee height: 542 km
right ascension of ascending node: 326.2463°
argument of perigee: 17.9230°
revolutions per day: 15.08750735
mean anomaly at epoch: 200.7908°
orbit number at epoch: 28290

The dashed part of the orbit path shows where the satellite is in the earth's shadow,  

DLR